CAPE
nan nan nan nan nan nan nan nan nan nan nan nan nan nan nan nan nan nan 3 1 1 nan 0 0 0 0 7 43 64 64 78 91 94 94 97 97 96 96 95 94 94 86 84 85 85 84 83 84 84 85 86 86 89 89 92 94 94 98 103 111 111 123 132 143 143 154 166 169 179 179 186 189 192 192 199 199 196 196 204 210 210 212 211 204 204 210
nan nan nan nan nan nan nan nan nan nan nan nan nan nan nan nan nan nan 1 2 2 0 0 1 1 1 0 22 67 67 81 92 95 95 93 90 84 84 84 80 80 78 79 77 77 78 79 82 82 84 83 86 88 88 89 91 91 91 96 103 103 120 131 143 143 156 163 167 178 178 184 185 186 186 192 200 203 203 210 225 225 234 238 238 238 222
nan nan nan nan nan nan nan nan nan nan nan nan nan nan nan nan nan nan 1 2 2 2 1 0 0 2 1 18 72 72 76 84 84 84 79 75 73 73 72 71 71 72 69 69 69 71 73 77 77 80 82 86 84 84 86 88 88 92 97 105 105 118 132 146 146 156 162 172 175 175 182 190 189 189 207 215 225 225 239 254 254 260 273 276 276 275
nan nan nan nan nan nan nan nan nan nan nan nan 0 0 0 nan 1 1 2 1 1 2 3 1 1 2 2 8 47 47 71 76 73 73 67 63 63 63 65 64 64 65 61 61 61 64 70 75 75 78 83 85 86 86 88 88 88 94 98 109 109 119 130 143 143 156 159 168 173 173 179 189 201 201 219 246 261 261 286 281 281 280 287 304 304 328
nan nan nan nan nan nan nan nan nan nan 0 0 0 0 1 1 2 2 3 4 4 4 3 4 4 5 2 1 26 26 62 65 61 61 56 52 52 52 53 58 58 57 58 60 60 64 70 75 75 78 83 87 88 88 87 91 91 98 102 108 108 115 130 143 143 149 151 159 173 173 182 186 201 201 219 246 272 272 283 270 270 263 269 293 293 313
nan nan 0 nan nan nan nan 0 0 0 0 nan 0 0 0 1 3 3 7 7 7 3 3 3 3 3 0 nan 16 16 47 51 46 46 41 42 43 43 47 53 53 54 56 59 59 66 71 78 78 83 85 86 87 87 87 93 93 94 99 105 105 110 121 131 131 138 144 153 158 158 163 177 187 187 198 218 232 232 246 243 243 239 236 251 251 269
0 1 1 0 0 nan nan 0 1 1 0 0 1 1 1 2 4 4 6 7 7 7 5 2 2 nan nan 1 19 19 34 33 31 31 28 32 40 40 47 51 51 54 56 61 61 67 75 78 78 83 85 89 87 87 88 85 85 87 90 97 97 105 111 117 117 125 130 130 135 135 140 148 157 157 166 176 189 189 201 212 212 215 217 222 222 237
2 0 1 0 0 0 1 2 1 1 nan 1 4 4 12 15 12 12 5 3 3 1 nan nan nan nan nan nan nan nan nan nan nan nan nan 3 22 22 39 55 55 64 65 69 69 74 77 79 79 77 78 79 79 79 79 74 74 74 76 80 80 82 87 91 91 98 97 99 106 106 113 119 129 129 138 147 155 155 166 181 181 199 224 243 243 263
1 0 1 3 3 2 1 4 9 9 3 8 16 16 18 10 6 6 2 0 0 0 nan nan nan nan nan nan nan nan nan 0 nan nan nan nan nan nan 23 50 50 58 65 68 68 71 72 71 71 70 68 70 70 70 70 67 67 63 67 71 71 76 80 88 88 89 98 106 110 110 117 128 135 135 139 142 149 149 151 165 165 187 209 231 231 248
3 3 4 5 5 7 2 4 16 16 14 18 23 23 8 1 0 0 0 nan nan nan nan nan nan nan nan nan nan nan nan 1 24 24 41 29 55 55 43 32 32 30 56 61 61 63 61 58 58 61 57 57 59 59 60 57 57 58 62 67 67 73 80 82 82 90 101 109 119 119 126 136 146 146 144 148 150 150 144 155 155 164 188 213 213 229
7 7 8 6 6 9 14 22 20 20 20 11 4 4 1 0 nan nan 0 1 1 0 nan nan nan nan nan nan nan nan nan nan nan nan 9 31 40 40 45 37 37 40 45 47 47 45 45 45 45 47 50 51 51 51 51 49 49 54 61 70 70 76 76 85 85 94 105 118 127 127 137 147 151 151 154 157 159 159 156 157 157 160 179 197 197 215
12 9 11 17 17 14 25 34 22 22 4 0 0 0 nan 0 0 0 1 1 1 0 nan nan nan nan nan nan nan nan nan nan nan nan nan 0 4 4 7 3 3 9 14 21 21 25 32 38 38 39 38 35 45 45 45 39 39 52 61 68 68 73 81 87 87 92 107 117 127 127 139 149 156 156 164 168 168 168 170 168 168 177 188 208 208 219
13 10 18 28 28 24 22 11 2 2 nan nan 0 0 0 nan 1 1 2 1 1 1 nan nan nan nan nan nan nan nan nan nan nan nan nan nan nan nan nan nan nan nan nan nan nan nan 12 28 28 33 35 31 36 36 44 42 42 51 61 68 68 75 83 87 87 94 108 122 135 135 145 152 158 158 163 172 169 169 169 174 174 180 198 206 206 223
4 9 26 30 30 15 7 1 1 1 0 nan nan nan 0 nan 0 0 0 0 0 nan nan nan nan nan nan nan 0 0 nan nan nan nan nan nan nan nan nan nan nan nan nan nan nan nan 3 7 7 2 21 21 25 25 28 38 38 52 61 70 70 74 82 86 86 96 110 124 135 135 142 148 151 151 159 160 161 161 163 161 161 172 181 195 195 206
11 20 25 14 14 5 1 1 0 0 0 nan 0 0 0 0 1 1 nan nan nan nan 0 nan nan nan 0 nan 0 0 nan nan nan nan nan nan nan nan nan nan nan nan nan nan nan nan 2 1 1 nan nan 1 4 4 17 30 30 59 64 72 72 75 83 89 89 96 106 117 127 127 135 144 146 146 154 159 158 158 153 154 154 155 156 174 174 180
27 19 14 7 7 3 2 1 nan nan nan nan 0 0 0 0 1 1 nan nan nan nan nan nan nan 0 0 0 0 0 nan nan nan nan nan nan nan nan nan nan nan nan nan nan nan nan nan nan nan nan nan 4 24 24 36 41 41 59 63 72 72 74 77 86 86 91 101 108 121 121 130 135 141 141 145 150 147 147 145 146 146 148 153 161 161 169
22 13 9 6 6 4 2 0 0 0 nan nan 0 0 0 0 1 1 0 0 0 1 nan 0 0 0 1 1 nan nan nan nan nan nan nan nan nan nan nan nan nan nan nan nan nan nan nan nan nan nan nan 12 29 29 34 45 45 55 61 64 64 67 72 79 79 83 92 98 107 107 117 123 130 130 135 136 135 135 137 138 138 140 141 147 147 155
14 9 8 5 5 3 0 0 0 0 0 nan nan nan 0 1 4 4 3 0 0 0 nan 1 1 0 0 nan nan nan nan nan nan nan nan nan nan nan nan nan nan nan nan nan nan nan nan nan nan nan nan 26 32 32 37 45 45 49 53 58 58 62 67 71 71 76 80 87 92 92 102 104 110 110 118 120 120 120 122 124 124 127 132 134 134 142
11 7 5 3 3 2 1 nan nan nan nan nan 0 0 2 5 6 6 4 nan nan nan 0 1 1 1 nan nan nan nan nan nan nan nan 0 nan nan nan nan nan nan nan nan nan nan nan nan nan nan 1 19 32 34 34 37 41 41 45 45 51 51 57 57 63 63 67 72 78 81 81 86 91 97 97 106 111 115 115 117 123 123 125 124 128 128 140
10 10 4 4 4 2 2 0 0 0 1 2 2 2 5 6 4 4 nan nan nan 0 2 0 0 nan nan nan nan nan nan nan nan nan nan nan nan nan nan nan nan nan nan nan nan nan nan nan nan nan 16 26 31 31 33 36 36 39 40 45 45 46 50 52 52 57 66 68 71 71 79 84 89 89 94 99 104 104 110 114 114 116 118 124 124 129
13 12 6 2 2 2 1 0 1 1 6 9 6 6 6 2 nan nan nan 2 2 2 nan nan nan nan nan nan nan nan nan nan nan nan nan nan nan nan nan nan nan nan nan nan nan nan nan nan nan nan 2 20 26 26 29 29 29 32 36 39 39 42 42 45 45 52 55 62 63 63 67 71 78 78 82 86 87 87 98 104 104 107 111 114 114 117
12 6 3 1 1 1 3 0 5 5 12 7 5 5 3 nan 0 0 3 1 1 nan nan nan nan nan nan nan nan nan nan nan nan nan nan nan nan nan nan nan nan nan nan nan nan nan nan nan nan nan 1 18 21 21 26 26 26 31 33 34 34 37 39 39 39 41 47 49 53 53 56 61 69 69 73 76 79 79 85 88 88 94 100 108 108 114
4 2 1 1 1 1 3 2 3 3 9 4 5 5 nan nan 2 2 1 nan nan nan nan nan nan nan nan 0 0 0 nan 0 nan nan nan nan nan nan nan nan nan nan nan nan nan nan nan nan nan nan 1 19 19 19 23 27 27 30 30 32 32 32 35 36 36 36 40 43 47 47 51 54 59 59 65 65 67 67 73 76 76 83 89 98 98 107
3 2 1 1 1 2 3 1 nan nan 0 0 1 1 1 1 nan nan nan nan nan 0 0 0 0 1 0 2 1 1 nan nan nan nan nan nan nan nan nan nan nan nan nan nan nan nan nan nan nan nan nan 12 17 17 20 24 24 26 28 29 29 29 31 33 33 32 35 37 40 40 44 49 53 53 53 55 55 55 59 66 66 73 78 88 88 93
2 3 3 3 3 7 4 2 10 10 13 10 8 8 3 0 2 2 nan 1 1 4 4 4 4 1 0 4 0 0 nan nan nan nan nan nan nan nan nan nan nan nan nan nan nan nan nan nan nan nan nan 0 12 12 18 22 22 24 25 27 27 25 27 26 26 27 28 29 33 33 34 37 41 41 43 45 47 47 50 56 56 64 70 74 74 82
15 14 11 24 24 58 84 114 136 136 109 46 12 12 nan 1 2 2 2 5 5 6 5 1 1 0 1 0 nan nan nan nan nan nan nan nan nan nan nan nan nan nan nan nan nan nan nan nan nan nan nan nan 8 8 15 20 20 21 23 23 23 22 20 19 19 20 20 22 25 25 28 31 33 33 36 38 43 43 45 50 50 57 60 65 65 75
43 51 71 91 91 113 137 148 138 138 122 72 15 15 4 2 3 3 6 6 6 4 1 0 0 0 1 nan nan nan nan 0 nan nan nan nan nan nan nan nan nan nan nan nan nan nan nan nan nan nan nan nan nan nan 11 16 16 19 18 16 16 15 14 14 14 16 18 20 20 20 24 26 30 30 32 36 38 38 42 46 46 53 55 53 53 60
46 60 76 98 98 111 103 82 65 65 59 60 67 67 34 5 3 3 4 3 3 2 1 1 1 0 0 nan nan nan nan nan nan nan nan nan nan nan nan nan nan nan nan nan nan nan 6 nan nan nan nan nan nan nan 3 13 13 14 13 11 11 12 12 13 13 14 15 17 20 20 23 26 28 28 30 32 36 36 39 43 43 46 49 40 40 15
51 68 87 91 91 71 50 40 38 38 42 48 57 57 35 5 4 4 6 6 6 4 1 1 1 0 0 nan nan nan nan nan nan nan nan nan nan nan nan nan nan nan nan nan nan nan 0 nan nan nan nan nan nan nan nan 7 7 7 9 10 10 10 9 10 10 11 14 16 19 19 22 25 26 26 28 30 33 33 35 39 39 41 33 22 22 6
42 62 55 38 38 27 20 11 22 22 34 41 45 45 32 6 7 7 6 7 7 3 2 3 3 1 nan 0 nan nan nan nan nan nan nan nan nan nan nan nan nan nan nan nan nan nan nan nan nan nan nan nan nan nan nan nan nan nan nan 5 5 3 6 8 8 10 14 17 19 19 22 22 24 24 25 26 29 29 29 34 34 32 14 3 3 2
17 9 0 2 2 3 1 0 9 9 27 37 36 36 26 4 3 3 5 4 4 2 0 2 2 0 1 nan nan nan nan nan nan nan nan nan nan nan nan nan nan nan nan nan nan nan nan nan nan nan nan nan nan nan nan nan nan nan nan nan nan nan 3 6 6 8 13 15 17 17 19 20 20 20 20 22 24 24 26 31 31 26 5 1 1 0
2 nan nan 0 0 0 1 1 1 1 1 2 3 3 9 8 4 4 0 1 1 1 nan nan nan 0 1 0 nan nan nan nan nan nan nan nan nan nan nan nan nan nan nan nan nan nan nan nan nan nan nan nan nan nan nan nan nan nan nan nan nan nan nan 2 2 3 2 7 9 9 12 11 11 11 13 16 19 19 22 27 27 29 11 1 1 1
3 1 1 1 1 1 1 1 2 2 3 1 1 1 1 2 7 7 4 1 1 nan nan nan nan nan 0 0 0 0 nan nan 1 1 4 nan nan nan nan nan nan nan nan nan nan nan nan nan nan nan nan nan nan nan nan nan nan nan nan nan nan nan nan nan nan nan nan 0 0 0 6 7 9 9 11 14 16 16 19 24 24 32 28 1 1 nan
1 3 2 1 1 0 1 1 1 1 2 2 2 2 2 1 1 1 3 0 0 nan nan nan nan nan nan nan nan nan nan nan 1 1 2 nan nan nan nan nan nan nan nan nan nan nan nan nan nan nan nan nan nan nan nan nan nan nan nan nan nan nan nan nan nan nan nan nan nan nan nan nan 4 4 6 9 12 12 17 24 24 32 41 22 22 5
1 3 1 0 0 0 0 1 1 1 1 1 2 2 1 1 nan nan 0 nan nan nan nan nan nan nan nan nan nan nan nan nan nan nan 4 nan nan nan nan nan nan nan nan nan nan nan nan nan nan nan nan nan nan nan nan nan nan nan nan nan nan nan nan nan nan nan nan nan nan nan nan nan nan nan nan 4 10 10 19 25 25 31 38 51 51 35
2 2 2 0 0 1 1 1 2 2 1 0 0 0 0 nan nan nan nan nan nan nan 0 nan nan nan nan nan nan nan nan nan nan nan 5 nan nan nan nan nan nan nan nan nan nan nan nan nan nan nan 0 nan nan nan nan nan nan nan nan nan nan nan nan nan nan nan nan nan nan nan nan nan nan nan nan 7 16 16 21 24 24 27 35 46 46 51
3 2 2 0 0 nan 1 0 0 0 0 0 nan nan 0 nan nan nan nan nan nan nan 0 2 2 1 3 nan nan nan nan nan nan nan nan nan nan nan nan nan nan nan nan nan nan nan nan nan nan nan nan nan nan nan nan nan nan nan nan nan nan nan nan nan nan nan nan nan nan nan nan nan nan nan nan 9 9 9 16 22 22 21 30 37 37 43
3 2 3 1 1 nan nan 0 1 1 nan nan nan nan nan nan nan nan nan nan nan nan nan nan nan nan 4 7 0 0 nan nan nan nan nan nan nan nan nan nan nan nan nan nan nan nan nan nan nan nan nan nan nan nan nan nan nan nan nan nan nan nan nan nan nan nan nan nan nan nan nan nan nan nan nan nan nan nan nan nan nan 6 20 24 24 36
2 2 2 2 2 nan nan 0 0 0 nan nan nan nan nan nan nan nan nan nan nan nan nan nan nan nan nan nan 3 3 3 nan nan nan nan nan nan nan nan nan nan nan nan nan nan nan nan nan nan nan nan nan nan nan nan nan nan nan nan nan nan nan nan nan nan nan nan nan nan nan nan nan nan nan nan nan nan nan nan nan nan 0 1 nan nan 13
4 3 2 3 3 1 0 0 0 0 0 nan 1 1 0 nan nan nan nan nan nan nan nan nan nan 0 0 1 2 2 1 nan nan nan nan nan nan nan nan nan nan nan nan nan nan nan nan nan nan nan nan nan nan nan nan nan nan nan 1 nan nan nan nan nan nan nan nan nan nan nan nan nan nan nan nan nan nan nan nan nan nan nan 0 nan nan nan
6 3 3 2 2 3 2 1 0 0 0 nan nan nan nan nan nan nan nan nan nan 0 nan nan nan nan nan nan nan nan nan nan nan nan nan nan nan nan nan nan nan nan nan nan nan nan nan nan nan nan nan nan nan nan nan nan nan 2 8 0 0 nan nan nan nan nan nan nan nan nan nan nan 0 0 nan nan nan nan nan nan nan nan nan nan nan nan
9 6 2 0 0 0 0 0 1 1 0 nan nan nan nan nan nan nan nan nan nan nan nan nan nan nan nan nan nan nan nan nan nan nan nan nan nan nan nan nan nan nan nan nan nan nan nan nan nan nan nan nan nan nan nan nan nan nan 2 nan nan nan 0 0 0 nan nan nan nan nan 1 0 nan nan nan nan nan nan nan nan nan 4 6 nan nan nan
4 2 1 0 0 0 1 1 0 0 nan nan nan nan nan nan nan nan 0 nan nan nan nan nan nan 0 nan nan nan nan nan nan nan nan nan nan nan nan nan nan nan nan nan nan nan nan nan nan nan nan nan nan nan nan nan nan nan nan nan 0 0 nan nan nan nan nan nan nan nan nan nan nan nan nan nan nan nan nan nan 3 3 19 19 1 1 nan
2 0 1 0 0 0 1 1 nan nan nan nan nan nan nan nan 0 0 0 nan nan 0 0 nan nan 0 0 nan nan nan nan nan nan nan nan nan nan nan nan nan nan nan nan nan nan nan nan nan nan nan nan nan nan nan nan nan nan nan nan nan nan nan nan nan nan nan nan nan nan nan nan nan nan nan nan nan nan nan nan nan nan nan 3 1 1 nan
0 0 1 1 1 1 0 0 nan nan nan nan nan nan nan 0 1 1 nan nan nan nan nan nan nan nan nan nan nan nan nan nan nan nan nan nan 8 8 1 nan nan nan nan nan nan nan nan nan nan nan nan nan nan nan nan nan nan nan nan nan nan nan nan nan nan nan nan nan nan nan nan nan nan nan nan nan nan nan nan nan nan nan nan nan nan nan
0 0 0 0 0 nan 0 nan nan nan nan nan nan nan nan nan nan nan nan nan nan nan nan nan nan nan nan nan nan nan nan nan nan nan nan nan nan nan 0 0 0 nan nan nan nan nan nan nan nan nan nan nan nan nan nan nan nan nan nan nan nan nan nan nan nan nan nan nan nan nan nan nan nan nan nan nan nan nan nan nan nan nan nan nan nan nan
nan nan nan nan nan nan nan nan nan nan nan nan nan nan nan nan nan nan nan nan nan nan nan nan nan nan nan nan nan nan nan nan nan nan nan nan nan nan nan nan nan 1 nan nan nan nan nan nan nan nan nan nan nan nan nan nan nan nan nan nan nan nan nan nan nan nan nan nan nan nan nan nan nan nan nan nan nan nan nan nan nan nan nan nan nan nan
0 0 nan nan nan nan nan nan nan nan nan 0 nan nan nan nan nan nan nan nan nan nan 1 nan nan nan nan nan nan nan nan nan nan nan nan nan nan nan nan nan nan 0 0 0 0 1 nan nan nan nan nan nan nan nan nan nan nan nan nan nan nan nan nan nan nan nan nan nan nan nan nan nan nan nan nan nan nan nan nan nan nan nan nan nan nan nan
0 nan nan nan nan nan nan nan nan nan nan nan nan nan nan 0 9 9 nan nan nan nan nan nan nan nan nan nan 0 0 2 nan nan nan 0 nan nan nan nan nan nan nan nan 0 0 nan nan nan nan nan nan nan nan nan nan nan nan nan nan nan nan nan nan nan nan nan nan nan nan nan nan nan nan nan nan nan nan nan nan nan nan nan nan nan nan nan
nan nan nan nan nan nan nan nan nan nan nan nan nan nan nan nan nan nan nan nan nan nan nan nan nan nan nan nan nan nan nan nan nan nan nan nan nan nan 0 nan nan nan nan nan nan nan nan nan nan 0 3 nan nan nan nan nan nan nan nan nan nan nan nan nan nan nan nan nan nan nan nan nan nan nan nan nan nan nan nan nan nan nan nan nan nan nan
0 nan nan nan nan nan nan nan nan nan nan nan nan nan nan nan nan nan nan nan nan nan nan nan nan nan nan nan nan nan nan nan nan nan nan nan nan nan 0 0 0 nan nan nan nan nan nan nan nan nan 1 12 2 2 nan nan nan nan nan nan nan nan nan nan nan nan nan nan nan nan nan nan nan nan nan nan nan nan nan nan nan nan nan nan nan nan
CIN
nan nan nan nan nan nan nan nan nan nan nan nan nan nan nan nan nan nan -7 -4 -4 nan -11 -15 -15 -14 -4 -0 -0 -0 -0 -0 -0 -0 -0 -0 -0 -0 -0 -0 -0 -0 -0 -0 -0 -0 -0 -0 -0 -0 -0 -0 -0 -0 -0 -0 -0 -0 -0 -0 -0 -0 -0 -0 -0 -0 -0 -0 -0 -0 -0 -0 -0 -0 -0 -0 -0 -0 -0 -0 -0 -0 -0 -0 -0 -0
nan nan nan nan nan nan nan nan nan nan nan nan nan nan nan nan nan nan -0 -0 -0 -6 -4 -6 -6 -4 -16 -0 -0 -0 -0 -0 -0 -0 -0 -0 -0 -0 -0 -0 -0 -0 -0 -0 -0 -0 -0 -0 -0 -0 -0 -0 -0 -0 -0 -0 -0 -0 -0 -0 -0 -0 -0 -0 -0 -0 -0 -0 -0 -0 -0 -0 -0 -0 -0 -0 -0 -0 -0 -0 -0 -0 -0 -0 -0 -0
nan nan nan nan nan nan nan nan nan nan nan nan nan nan nan nan nan nan -0 -0 -0 -0 -0 -6 -6 -7 -13 -4 -0 -0 -0 -0 -0 -0 -0 -0 -0 -0 -0 -0 -0 -0 -0 -0 -0 -0 -0 -0 -0 -0 -0 -0 -0 -0 -0 -0 -0 -0 -0 -0 -0 -0 -0 -0 -0 -0 -0 -0 -0 -0 -0 -0 -0 -0 -0 -0 -0 -0 -0 -0 -0 -0 -0 -0 -0 -0
nan nan nan nan nan nan nan nan nan nan nan nan -0 -0 -0 nan -0 -0 -2 -0 -0 -1 -2 -0 -0 -3 -16 -7 -0 -0 -0 -0 -0 -0 -0 -0 -0 -0 -0 -0 -0 -0 -0 -0 -0 -0 -0 -0 -0 -0 -0 -0 -0 -0 -0 -0 -0 -0 -0 -0 -0 -0 -0 -0 -0 -0 -0 -0 -0 -0 -0 -0 -0 -0 -0 -0 -0 -0 -0 -0 -0 -0 -0 -0 -0 -0
nan nan nan nan nan nan nan nan nan nan -2 -2 -0 -0 -4 -6 -10 -10 -16 -10 -10 -0 -0 -3 -3 -1 -12 -31 -5 -5 -0 -0 -0 -0 -0 -0 -0 -0 -0 -0 -0 -0 -0 -0 -0 -0 -0 -0 -0 -0 -0 -0 -0 -0 -0 -0 -0 -0 -0 -0 -0 -0 -0 -0 -0 -0 -0 -0 -0 -0 -0 -0 -0 -0 -0 -0 -0 -0 -0 -0 -0 -0 -0 -0 -0 -0
nan nan -0 nan nan nan nan -6 -3 -3 -0 nan -5 -5 -0 -11 -18 -18 -18 -16 -16 -15 -10 -0 -0 -1 -0 nan -0 -0 -0 -0 -0 -0 -0 -0 -0 -0 -0 -0 -0 -0 -0 -0 -0 -0 -0 -0 -0 -0 -0 -0 -0 -0 -0 -0 -0 -0 -0 -0 -0 -0 -0 -0 -0 -0 -0 -0 -0 -0 -0 -0 -0 -0 -0 -0 -0 -0 -0 -0 -0 -0 -0 -0 -0 -0
-0 -0 -1 -0 -0 nan nan -9 -0 -0 -4 -12 -9 -9 -13 -19 -16 -16 -13 -14 -14 -14 -14 -15 -15 nan nan -2 -0 -0 -0 -0 -0 -0 -0 -0 -0 -0 -0 -0 -0 -0 -0 -0 -0 -0 -0 -0 -0 -0 -0 -0 -0 -0 -0 -0 -0 -0 -0 -0 -0 -0 -0 -0 -0 -0 -0 -0 -0 -0 -0 -0 -0 -0 -0 -0 -0 -0 -0 -0 -0 -0 -0 -0 -0 -0
-0 -0 -0 -0 -0 -6 -5 -6 -7 -7 nan -11 -4 -4 -2 -0 -14 -14 -38 -51 -51 -30 nan nan nan nan nan nan nan nan nan nan nan nan nan -0 -0 -0 -0 -0 -0 -0 -0 -0 -0 -0 -0 -0 -0 -0 -0 -0 -0 -0 -0 -0 -0 -0 -0 -0 -0 -0 -0 -0 -0 -0 -0 -0 -0 -0 -0 -0 -0 -0 -0 -0 -0 -0 -0 -0 -0 -0 -0 -0 -0 -0
-12 -2 -0 -1 -1 -8 -12 -0 -0 -0 -21 -8 -1 -1 -6 -6 -13 -13 -29 -41 -41 -41 nan nan nan nan nan nan nan nan nan -0 nan nan nan nan nan nan -0 -0 -0 -0 -0 -0 -0 -0 -0 -0 -0 -0 -0 -0 -0 -0 -0 -0 -0 -0 -0 -0 -0 -0 -0 -0 -0 -0 -0 -0 -0 -0 -0 -0 -0 -0 -0 -0 -0 -0 -0 -0 -0 -0 -0 -0 -0 -0
-15 -11 -6 -10 -10 -22 -21 -9 -0 -0 -8 -8 -11 -11 -18 -16 -11 -11 -12 nan nan nan nan nan nan nan nan nan nan nan nan -0 -0 -0 -0 -0 -0 -0 -0 -0 -0 -0 -0 -0 -0 -0 -0 -0 -0 -0 -0 -0 -0 -0 -0 -0 -0 -0 -0 -0 -0 -0 -0 -0 -0 -0 -0 -0 -0 -0 -0 -0 -0 -0 -0 -0 -0 -0 -0 -0 -0 -0 -0 -0 -0 -0
-2 -11 -12 -10 -10 -18 -22 -12 -10 -10 -9 -17 -23 -23 -14 -23 nan nan -7 -3 -3 -9 nan nan nan nan nan nan nan nan nan nan nan nan -0 -0 -0 -0 -0 -0 -0 -0 -0 -0 -0 -0 -0 -0 -0 -0 -0 -0 -0 -0 -0 -0 -0 -0 -0 -0 -0 -0 -0 -0 -0 -0 -0 -0 -0 -0 -0 -0 -0 -0 -0 -0 -0 -0 -0 -0 -0 -0 -0 -0 -0 -0
-6 -6 -9 -3 -3 -7 -9 -9 -6 -6 -17 -18 -9 -9 nan -31 -47 -47 -12 -3 -3 -8 nan nan nan nan nan nan nan nan nan nan nan nan nan -25 -16 -16 -0 -5 -5 -0 -0 -0 -0 -0 -0 -0 -0 -0 -0 -0 -0 -0 -0 -0 -0 -0 -0 -0 -0 -0 -0 -0 -0 -0 -0 -0 -0 -0 -0 -0 -0 -0 -0 -0 -0 -0 -0 -0 -0 -0 -0 -0 -0 -0
-7 -10 -6 -3 -3 -2 -4 -4 -9 -9 nan nan -6 -6 -8 nan -29 -29 -24 -9 -9 -7 nan nan nan nan nan nan nan nan nan nan nan nan nan nan nan nan nan nan nan nan nan nan nan nan -0 -0 -0 -0 -0 -0 -0 -0 -0 -0 -0 -0 -0 -0 -0 -0 -0 -0 -0 -0 -0 -0 -0 -0 -0 -0 -0 -0 -0 -0 -0 -0 -0 -0 -0 -0 -0 -0 -0 -0
-11 -11 -3 -3 -3 -8 -8 -6 -5 -5 -7 nan nan nan -12 nan -17 -17 -14 -7 -7 nan nan nan nan nan nan nan -25 -25 nan nan nan nan nan nan nan nan nan nan nan nan nan nan nan nan -0 -0 -0 -1 -0 -0 -0 -0 -0 -0 -0 -0 -0 -0 -0 -0 -0 -0 -0 -0 -0 -0 -0 -0 -0 -0 -0 -0 -0 -0 -0 -0 -0 -0 -0 -0 -0 -0 -0 -0
-10 -5 -2 -6 -6 -11 -9 -6 -7 -7 -10 nan -11 -11 -14 -18 -11 -11 nan nan nan nan -14 nan nan nan -12 nan -25 -25 nan nan nan nan nan nan nan nan nan nan nan nan nan nan nan nan -6 -10 -10 nan nan -5 -1 -1 -0 -0 -0 -0 -0 -0 -0 -0 -0 -0 -0 -0 -0 -0 -0 -0 -0 -0 -0 -0 -0 -0 -0 -0 -0 -0 -0 -0 -0 -0 -0 -0
-4 -7 -4 -9 -9 -14 -8 -7 nan nan nan nan -12 -12 -17 -9 -9 -9 nan nan nan nan nan nan nan -10 -10 -23 -21 -21 nan nan nan nan nan nan nan nan nan nan nan nan nan nan nan nan nan nan nan nan nan -0 -0 -0 -0 -0 -0 -0 -0 -0 -0 -0 -0 -0 -0 -0 -0 -0 -0 -0 -0 -0 -0 -0 -0 -0 -0 -0 -0 -0 -0 -0 -0 -0 -0 -0
-7 -9 -10 -12 -12 -11 -6 -8 -2 -2 nan nan -13 -13 -11 -12 -14 -14 -14 -14 -14 -12 nan -12 -12 -9 -8 -10 nan nan nan nan nan nan nan nan nan nan nan nan nan nan nan nan nan nan nan nan nan nan nan -0 -0 -0 -0 -0 -0 -0 -0 -0 -0 -0 -0 -0 -0 -0 -0 -0 -0 -0 -0 -0 -0 -0 -0 -0 -0 -0 -0 -0 -0 -0 -0 -0 -0 -0
-9 -11 -10 -9 -9 -6 -0 -0 -5 -5 -10 nan nan nan -15 -15 -11 -11 -8 -11 -11 -11 nan -6 -6 -10 -10 nan nan nan nan nan nan nan nan nan nan nan nan nan nan nan nan nan nan nan nan nan nan nan nan -0 -0 -0 -0 -0 -0 -0 -0 -0 -0 -0 -0 -0 -0 -0 -0 -0 -0 -0 -0 -0 -0 -0 -0 -0 -0 -0 -0 -0 -0 -0 -0 -0 -0 -0
-7 -11 -11 -7 -7 -0 -0 nan nan nan nan nan -12 -12 -10 -8 -6 -6 -5 nan nan nan -5 -5 -5 -10 nan nan nan nan nan nan nan nan -8 nan nan nan nan nan nan nan nan nan nan nan nan nan nan -18 -0 -0 -0 -0 -0 -0 -0 -0 -0 -0 -0 -0 -0 -0 -0 -0 -0 -0 -0 -0 -0 -0 -0 -0 -0 -0 -0 -0 -0 -0 -0 -0 -0 -0 -0 -0
-7 -8 -10 -4 -4 -8 -6 -7 -4 -4 -0 -2 -12 -12 -8 -5 -5 -5 nan nan nan -10 -7 -9 -9 nan nan nan nan nan nan nan nan nan nan nan nan nan nan nan nan nan nan nan nan nan nan nan nan nan -0 -0 -0 -0 -0 -0 -0 -0 -0 -0 -0 -0 -0 -0 -0 -0 -0 -0 -0 -0 -0 -0 -0 -0 -0 -0 -0 -0 -0 -0 -0 -0 -0 -0 -0 -0
-5 -5 -5 -10 -10 -12 -7 -5 -5 -5 -0 -7 -14 -14 -7 -8 nan nan nan -4 -4 -6 nan nan nan nan nan nan nan nan nan nan nan nan nan nan nan nan nan nan nan nan nan nan nan nan nan nan nan nan -3 -0 -0 -0 -0 -0 -0 -0 -0 -0 -0 -0 -0 -0 -0 -0 -0 -0 -0 -0 -0 -0 -0 -0 -0 -0 -0 -0 -0 -0 -0 -0 -0 -0 -0 -0
-7 -10 -11 -18 -18 -12 -3 -13 -4 -4 -5 -26 -12 -12 -5 nan -3 -3 -2 -9 -9 nan nan nan nan nan nan nan nan nan nan nan nan nan nan nan nan nan nan nan nan nan nan nan nan nan nan nan nan nan -3 -0 -0 -0 -0 -0 -0 -0 -0 -0 -0 -0 -0 -0 -0 -0 -0 -0 -0 -0 -0 -0 -0 -0 -0 -0 -0 -0 -0 -0 -0 -0 -0 -0 -0 -0
-11 -11 -10 -12 -12 -15 -13 -22 -22 -22 -14 -19 -4 -4 nan nan -10 -10 -17 nan nan nan nan nan nan nan nan -6 -13 -13 nan -12 nan nan nan nan nan nan nan nan nan nan nan nan nan nan nan nan nan nan -0 -0 -0 -0 -0 -0 -0 -0 -0 -0 -0 -0 -0 -0 -0 -0 -0 -0 -0 -0 -0 -0 -0 -0 -0 -0 -0 -0 -0 -0 -0 -0 -0 -0 -0 -0
-9 -6 -8 -16 -16 -34 -33 -23 nan nan -23 -15 -18 -18 -23 -23 nan nan nan nan nan -9 -10 -10 -10 -10 -12 -8 -9 -9 nan nan nan nan nan nan nan nan nan nan nan nan nan nan nan nan nan nan nan nan nan -0 -0 -0 -0 -0 -0 -0 -0 -0 -0 -0 -0 -0 -0 -0 -0 -0 -0 -0 -0 -0 -0 -0 -0 -0 -0 -0 -0 -0 -0 -0 -0 -0 -0 -0
-10 -10 -15 -21 -21 -36 -25 -18 -10 -10 -9 -14 -12 -12 -11 -4 -3 -3 nan -10 -10 -7 -6 -6 -6 -6 -11 -0 -1 -1 nan nan nan nan nan nan nan nan nan nan nan nan nan nan nan nan nan nan nan nan nan -0 -0 -0 -0 -0 -0 -0 -0 -0 -0 -0 -0 -0 -0 -0 -0 -0 -0 -0 -0 -0 -0 -0 -0 -0 -0 -0 -0 -0 -0 -0 -0 -0 -0 -0
-0 -4 -8 -1 -1 -0 -0 -0 -0 -0 -0 -4 -11 -11 nan -6 -7 -7 -7 -4 -4 -3 -4 -5 -5 -5 -5 -5 nan nan nan nan nan nan nan nan nan nan nan nan nan nan nan nan nan nan nan nan nan nan nan nan -0 -0 -0 -0 -0 -0 -0 -0 -0 -0 -0 -0 -0 -0 -0 -0 -0 -0 -0 -0 -0 -0 -0 -0 -0 -0 -0 -0 -0 -0 -0 -0 -0 -0
-0 -0 -0 -0 -0 -0 -0 -0 -0 -0 -0 -0 -3 -3 -11 -13 -7 -7 -2 -2 -2 -3 -5 -5 -5 -5 -4 nan nan nan nan -5 nan nan nan nan nan nan nan nan nan nan nan nan nan nan nan nan nan nan nan nan nan nan -0 -0 -0 -0 -0 -0 -0 -0 -0 -0 -0 -0 -0 -0 -0 -0 -0 -0 -0 -0 -0 -0 -0 -0 -0 -0 -0 -0 -0 -0 -0 -0
-0 -0 -0 -0 -0 -0 -0 -0 -0 -0 -0 -0 -0 -0 -0 -8 -4 -4 -2 -2 -2 -4 -4 -3 -3 -4 -3 nan nan nan nan nan nan nan nan nan nan nan nan nan nan nan nan nan nan nan -0 nan nan nan nan nan nan nan -0 -0 -0 -0 -0 -0 -0 -0 -0 -0 -0 -0 -0 -0 -0 -0 -0 -0 -0 -0 -0 -0 -0 -0 -0 -0 -0 -0 -0 -0 -0 -8
-0 -0 -0 -0 -0 -0 -0 -0 -0 -0 -0 -0 -0 -0 -0 -9 -1 -1 -1 -2 -2 -3 -3 -2 -2 -2 -3 nan nan nan nan nan nan nan nan nan nan nan nan nan nan nan nan nan nan nan -11 nan nan nan nan nan nan nan nan -0 -0 -0 -0 -0 -0 -0 -0 -0 -0 -0 -0 -0 -0 -0 -0 -0 -0 -0 -0 -0 -0 -0 -0 -0 -0 -0 -0 -8 -8 -13
-0 -0 -0 -0 -0 -0 -0 -0 -0 -0 -0 -0 -0 -0 -0 -9 -3 -3 -3 -4 -4 -2 -2 -1 -1 -1 nan -6 nan nan nan nan nan nan nan nan nan nan nan nan nan nan nan nan nan nan nan nan nan nan nan nan nan nan nan nan nan nan nan -0 -0 -0 -0 -0 -0 -0 -0 -0 -0 -0 -0 -0 -0 -0 -0 -0 -0 -0 -0 -0 -0 -0 -13 -22 -22 -15
-1 -0 -0 -0 -0 -0 -4 -15 -0 -0 -0 -0 -0 -0 -0 -10 -9 -9 -7 -7 -7 -4 -3 -1 -1 -2 -3 nan nan nan nan nan nan nan nan nan nan nan nan nan nan nan nan nan nan nan nan nan nan nan nan nan nan nan nan nan nan nan nan nan nan nan -0 -0 -0 -0 -0 -0 -0 -0 -0 -0 -0 -0 -0 -0 -0 -0 -0 -0 -0 -0 -20 -22 -22 -13
-0 nan nan -6 -6 -9 -10 -8 -9 -9 -9 -8 -5 -5 -0 -0 -6 -6 -16 -12 -12 -8 nan nan nan -2 -0 -1 nan nan nan nan nan nan nan nan nan nan nan nan nan nan nan nan nan nan nan nan nan nan nan nan nan nan nan nan nan nan nan nan nan nan nan -0 -0 -0 -0 -0 -0 -0 -0 -0 -0 -0 -0 -0 -0 -0 -0 -0 -0 -0 -13 -13 -13 -6
-0 -0 -1 -2 -2 -6 -8 -7 -8 -8 -5 -8 -5 -5 -7 -4 -0 -0 -4 -11 -11 nan nan nan nan nan -2 -2 -3 -3 nan nan -0 -0 -0 nan nan nan nan nan nan nan nan nan nan nan nan nan nan nan nan nan nan nan nan nan nan nan nan nan nan nan nan nan nan nan nan -3 -1 -1 -0 -0 -0 -0 -0 -0 -0 -0 -0 -0 -0 -0 -0 -14 -14 nan
-3 -0 -1 -5 -5 -9 -8 -8 -9 -9 -7 -1 -0 -0 -3 -6 -7 -7 -4 -11 -11 nan nan nan nan nan nan nan nan nan nan nan -0 -0 -0 nan nan nan nan nan nan nan nan nan nan nan nan nan nan nan nan nan nan nan nan nan nan nan nan nan nan nan nan nan nan nan nan nan nan nan nan nan -0 -0 -0 -0 -0 -0 -0 -0 -0 -0 -0 -5 -5 -6
-3 -0 -2 -6 -6 -6 -4 -7 -8 -8 -5 -2 -2 -2 -4 -6 nan nan -13 nan nan nan nan nan nan nan nan nan nan nan nan nan nan nan -0 nan nan nan nan nan nan nan nan nan nan nan nan nan nan nan nan nan nan nan nan nan nan nan nan nan nan nan nan nan nan nan nan nan nan nan nan nan nan nan nan -0 -0 -0 -0 -0 -0 -0 -0 -0 -0 -0
-5 -4 -2 -7 -7 -2 -0 -0 -0 -0 -1 -4 -7 -7 -8 nan nan nan nan nan nan nan -7 nan nan nan nan nan nan nan nan nan nan nan -0 nan nan nan nan nan nan nan nan nan nan nan nan nan nan nan -0 nan nan nan nan nan nan nan nan nan nan nan nan nan nan nan nan nan nan nan nan nan nan nan nan -0 -0 -0 -0 -0 -0 -0 -0 -0 -0 -0
-2 -2 -1 -6 -6 nan -0 -0 -1 -1 -2 -2 nan nan -5 nan nan nan nan nan nan nan -11 -3 -3 -6 -5 nan nan nan nan nan nan nan nan nan nan nan nan nan nan nan nan nan nan nan nan nan nan nan nan nan nan nan nan nan nan nan nan nan nan nan nan nan nan nan nan nan nan nan nan nan nan nan nan -0 -0 -0 -0 -0 -0 -0 -0 -0 -0 -0
-1 -1 -0 -4 -4 nan nan -1 -0 -0 nan nan nan nan nan nan nan nan nan nan nan nan nan nan nan nan -5 -1 -24 -24 nan nan nan nan nan nan nan nan nan nan nan nan nan nan nan nan nan nan nan nan nan nan nan nan nan nan nan nan nan nan nan nan nan nan nan nan nan nan nan nan nan nan nan nan nan nan nan nan nan nan nan -0 -0 -0 -0 -0
-3 -4 -2 -1 -1 nan nan -0 -1 -1 nan nan nan nan nan nan nan nan nan nan nan nan nan nan nan nan nan nan -15 -15 -13 nan nan nan nan nan nan nan nan nan nan nan nan nan nan nan nan nan nan nan nan nan nan nan nan nan nan nan nan nan nan nan nan nan nan nan nan nan nan nan nan nan nan nan nan nan nan nan nan nan nan -11 -12 nan nan -0
-1 -3 -2 -0 -0 -3 -5 -3 -4 -4 -6 nan -1 -1 -4 nan nan nan nan nan nan nan nan nan nan -16 -18 -12 -10 -10 -16 nan nan nan nan nan nan nan nan nan nan nan nan nan nan nan nan nan nan nan nan nan nan nan nan nan nan nan -4 nan nan nan nan nan nan nan nan nan nan nan nan nan nan nan nan nan nan nan nan nan nan nan -13 nan nan nan
-0 -2 -1 -0 -0 -0 -0 -0 -7 -7 -8 nan nan nan nan nan nan nan nan nan nan -7 nan nan nan nan nan nan nan nan nan nan nan nan nan nan nan nan nan nan nan nan nan nan nan nan nan nan nan nan nan nan nan nan nan nan nan -3 -0 -6 -6 nan nan nan nan nan nan nan nan nan nan nan -12 -12 nan nan nan nan nan nan nan nan nan nan nan nan
-0 -0 -0 -1 -1 -1 -0 -0 -2 -2 -5 nan nan nan nan nan nan nan nan nan nan nan nan nan nan nan nan nan nan nan nan nan nan nan nan nan nan nan nan nan nan nan nan nan nan nan nan nan nan nan nan nan nan nan nan nan nan nan -3 nan nan nan -9 -10 -10 nan nan nan nan nan -6 -9 nan nan nan nan nan nan nan nan nan -6 -3 nan nan nan
-0 -0 -0 -0 -0 -0 -0 -1 -4 -4 nan nan nan nan nan nan nan nan -3 nan nan nan nan nan nan -5 nan nan nan nan nan nan nan nan nan nan nan nan nan nan nan nan nan nan nan nan nan nan nan nan nan nan nan nan nan nan nan nan nan -6 -6 nan nan nan nan nan nan nan nan nan nan nan nan nan nan nan nan nan nan -10 -10 -1 -1 -5 -5 nan
-0 -0 -0 -0 -0 -0 -0 -3 nan nan nan nan nan nan nan nan -5 -5 -5 nan nan -4 -4 nan nan -7 -4 nan nan nan nan nan nan nan nan nan nan nan nan nan nan nan nan nan nan nan nan nan nan nan nan nan nan nan nan nan nan nan nan nan nan nan nan nan nan nan nan nan nan nan nan nan nan nan nan nan nan nan nan nan nan nan -7 -11 -11 nan
-0 -0 -0 -0 -0 -0 -2 -4 nan nan nan nan nan nan nan -7 -4 -4 nan nan nan nan nan nan nan nan nan nan nan nan nan nan nan nan nan nan -10 -10 -28 nan nan nan nan nan nan nan nan nan nan nan nan nan nan nan nan nan nan nan nan nan nan nan nan nan nan nan nan nan nan nan nan nan nan nan nan nan nan nan nan nan nan nan nan nan nan nan
-2 -3 -1 -1 -1 nan -0 nan nan nan nan nan nan nan nan nan nan nan nan nan nan nan nan nan nan nan nan nan nan nan nan nan nan nan nan nan nan nan -31 -28 -28 nan nan nan nan nan nan nan nan nan nan nan nan nan nan nan nan nan nan nan nan nan nan nan nan nan nan nan nan nan nan nan nan nan nan nan nan nan nan nan nan nan nan nan nan nan
nan nan nan nan nan nan nan nan nan nan nan nan nan nan nan nan nan nan nan nan nan nan nan nan nan nan nan nan nan nan nan nan nan nan nan nan nan nan nan nan nan -24 nan nan nan nan nan nan nan nan nan nan nan nan nan nan nan nan nan nan nan nan nan nan nan nan nan nan nan nan nan nan nan nan nan nan nan nan nan nan nan nan nan nan nan nan
-3 -3 nan nan nan nan nan nan nan nan nan -5 nan nan nan nan nan nan nan nan nan nan -1 nan nan nan nan nan nan nan nan nan nan nan nan nan nan nan nan nan nan -24 -21 -18 -18 -14 nan nan nan nan nan nan nan nan nan nan nan nan nan nan nan nan nan nan nan nan nan nan nan nan nan nan nan nan nan nan nan nan nan nan nan nan nan nan nan nan
-2 nan nan nan nan nan nan nan nan nan nan nan nan nan nan -2 -0 -0 nan nan nan nan nan nan nan nan nan nan -4 -4 -2 nan nan nan -11 nan nan nan nan nan nan nan nan -20 -20 nan nan nan nan nan nan nan nan nan nan nan nan nan nan nan nan nan nan nan nan nan nan nan nan nan nan nan nan nan nan nan nan nan nan nan nan nan nan nan nan nan
nan nan nan nan nan nan nan nan nan nan nan nan nan nan nan nan nan nan nan nan nan nan nan nan nan nan nan nan nan nan nan nan nan nan nan nan nan nan -18 nan nan nan nan nan nan nan nan nan nan -31 -20 nan nan nan nan nan nan nan nan nan nan nan nan nan nan nan nan nan nan nan nan nan nan nan nan nan nan nan nan nan nan nan nan nan nan nan
-2 nan nan nan nan nan nan nan nan nan nan nan nan nan nan nan nan nan nan nan nan nan nan nan nan nan nan nan nan nan nan nan nan nan nan nan nan nan -14 -15 -15 nan nan nan nan nan nan nan nan nan -17 -4 -19 -19 nan nan nan nan nan nan nan nan nan nan nan nan nan nan nan nan nan nan nan nan nan nan nan nan nan nan nan nan nan nan nan nan
Wind_Speed
6 7 7 9 10 9 8 10 11 11 11 10 9 10 10 11 11 11 14 14 14 13 12 12 13 14 16 19 22 24 26 26 27 27 28 28 28 27 27 27 27 27 28 28 28 28 28 28 29 29 29 29 29 29 29 29 29 29 30 30 30 30 30 30 30 31 31 31 31 31 31 31 31 31 31 31 31 31 31 31 31 31 31 31 31 31
7 7 7 9 10 10 9 10 11 11 11 11 11 11 11 12 11 11 11 12 13 13 12 12 13 14 16 17 21 24 25 26 27 27 27 27 27 27 27 27 27 27 28 28 28 28 29 29 29 29 29 29 29 29 29 29 29 29 30 30 30 30 30 30 30 30 31 30 30 30 30 30 30 30 30 30 30 31 31 31 31 31 31 31 31 32
7 7 7 8 9 10 9 10 11 11 12 12 12 12 13 14 12 10 9 10 11 11 11 11 12 14 15 16 19 22 24 25 25 26 26 26 26 26 27 27 27 28 28 28 28 29 29 29 29 29 29 29 29 29 29 29 29 29 30 30 30 30 30 30 30 30 30 30 30 30 30 30 30 30 30 30 30 30 31 31 30 30 30 30 31 31
8 8 7 7 8 9 9 10 10 10 11 12 13 14 15 13 11 10 9 10 10 10 11 12 13 13 13 13 16 19 22 24 25 25 25 26 26 27 27 27 28 28 28 28 29 29 29 29 28 29 29 29 29 29 29 29 29 30 30 30 30 30 30 30 30 30 30 30 30 30 30 30 30 29 29 30 30 30 30 30 30 29 29 29 30 30
7 8 8 7 7 8 9 10 10 10 10 11 12 12 13 11 9 9 9 10 10 11 11 12 13 13 12 11 13 17 21 23 24 25 26 26 27 27 27 28 28 28 28 28 28 28 28 28 28 28 29 29 29 29 29 29 29 30 30 30 30 30 30 30 30 30 29 29 29 29 29 29 29 29 29 29 29 29 30 30 29 29 29 30 30 30
8 7 8 7 7 7 8 8 9 9 10 9 10 10 10 9 9 8 9 9 10 10 10 10 11 12 12 12 14 17 20 22 24 25 26 26 27 27 27 27 28 28 28 28 28 28 28 28 29 29 29 29 29 29 29 29 29 29 29 29 29 29 29 29 29 29 29 29 29 29 29 29 29 29 29 29 29 29 29 29 29 29 29 30 31 31
8 7 7 7 7 7 7 8 9 9 9 8 8 8 8 8 8 9 10 10 10 10 9 10 10 10 11 12 14 16 18 20 22 23 24 25 26 26 26 27 27 28 28 28 28 28 28 28 28 28 29 29 29 29 29 29 29 29 29 29 29 29 29 29 29 29 29 29 29 29 29 29 29 29 29 29 29 29 29 29 29 29 30 30 31 31
9 8 7 8 8 7 7 7 8 8 9 8 8 7 7 8 8 9 10 10 10 9 9 9 9 9 10 11 13 14 14 15 17 18 20 21 22 23 24 26 27 27 28 28 28 28 28 28 28 28 28 28 28 28 29 29 29 28 28 28 28 28 28 28 28 29 29 29 29 29 29 29 29 29 29 29 29 29 29 29 29 29 30 30 30 31
10 9 9 8 8 8 8 8 7 7 8 7 7 7 8 9 9 9 8 9 9 9 9 9 9 9 9 10 11 12 13 13 14 14 16 16 17 19 21 23 25 26 27 27 27 28 27 28 28 28 28 28 28 28 28 28 28 28 28 28 28 28 28 28 28 28 28 28 28 28 28 28 28 28 28 28 28 28 28 28 28 29 29 30 30 30
9 9 9 8 7 7 8 8 7 7 7 7 7 7 8 10 10 10 9 8 8 8 8 9 9 10 9 9 10 11 12 14 16 18 19 18 19 21 21 21 21 22 25 26 26 27 27 27 27 27 27 28 28 28 28 28 28 27 27 27 27 27 27 27 27 28 28 28 28 28 28 28 28 28 28 28 28 28 28 28 28 28 29 29 30 30
9 9 8 8 7 6 6 6 6 6 7 8 8 8 8 9 9 10 11 10 9 8 8 8 8 9 9 9 10 10 11 12 13 15 17 19 21 22 22 21 21 22 23 24 24 25 25 26 26 27 27 27 27 27 27 27 27 27 27 27 27 27 27 27 27 27 27 27 27 27 27 28 28 28 28 28 28 28 28 28 28 28 29 29 30 30
8 8 7 7 6 5 5 5 6 7 7 8 8 9 8 8 8 8 11 11 10 9 9 8 8 8 9 9 10 10 10 10 11 11 11 13 14 15 16 16 16 18 19 19 20 22 23 24 25 26 26 26 26 26 26 26 25 26 26 26 26 26 26 26 26 26 27 27 27 27 28 28 28 28 28 28 28 28 28 28 28 28 29 29 30 30
7 7 6 6 6 6 6 6 7 7 7 8 9 9 9 8 7 7 8 9 10 9 9 9 8 8 9 9 9 9 9 10 10 10 10 10 10 10 10 10 11 11 12 13 13 15 19 21 23 23 24 24 24 25 25 24 24 25 25 25 25 25 26 26 26 26 27 27 27 28 28 28 28 28 28 28 28 28 28 28 28 29 29 29 29 30
7 7 6 6 6 6 7 8 8 9 8 8 9 9 9 8 8 8 8 9 9 9 9 9 10 9 8 8 9 9 9 9 9 9 9 9 9 9 9 10 10 10 10 11 11 12 15 16 17 18 21 21 22 23 22 23 24 24 25 25 26 26 26 26 27 27 27 28 28 28 28 28 28 28 29 29 29 29 29 29 29 29 29 29 29 30
7 7 7 7 7 7 8 8 9 9 9 9 8 9 9 8 8 8 8 9 9 9 9 10 10 10 8 7 7 8 8 8 9 9 10 9 9 8 9 10 10 10 10 11 11 12 14 13 13 13 15 17 18 20 21 22 23 25 25 26 26 27 27 27 28 28 28 28 28 28 28 28 28 29 29 29 29 29 29 29 29 29 29 29 29 30
6 6 7 8 8 8 8 8 9 9 9 9 8 8 8 8 8 8 8 9 9 9 9 9 10 9 7 6 6 7 8 8 9 10 11 10 9 9 9 10 11 11 11 11 11 11 11 11 11 12 13 16 20 22 24 24 25 26 26 27 27 28 28 28 28 28 28 28 28 28 28 28 29 29 29 29 29 29 29 29 29 29 29 29 29 30
6 7 8 8 9 9 9 8 9 9 9 8 8 8 8 8 8 8 8 8 8 8 7 8 8 8 6 5 5 6 7 8 9 9 11 11 10 9 9 10 11 12 11 11 11 11 10 10 10 11 12 16 20 24 25 26 26 27 27 28 28 28 28 28 28 28 28 28 28 28 29 29 29 29 29 29 29 29 29 29 29 29 30 30 30 30
7 7 8 9 9 9 9 9 8 8 8 8 8 8 8 8 8 8 8 8 8 8 8 7 7 6 6 6 5 6 7 9 9 10 11 11 10 10 9 10 10 11 11 11 11 10 10 10 10 11 13 19 23 25 26 27 27 27 27 28 28 28 28 28 28 29 29 29 29 29 29 29 29 29 29 29 29 29 29 29 29 30 30 30 30 30
8 8 8 9 9 8 8 8 8 8 8 8 8 8 8 8 8 9 9 9 8 8 8 8 7 6 6 7 8 8 9 9 10 10 11 11 11 10 9 9 10 11 11 11 11 10 10 10 12 15 19 23 25 26 27 27 27 27 27 28 28 28 28 29 29 29 29 29 29 29 29 29 29 29 29 29 29 29 29 29 29 29 30 30 30 30
9 8 8 8 9 9 8 8 8 8 8 8 8 8 8 9 9 9 9 9 8 7 7 7 7 7 8 9 10 10 9 9 9 10 10 11 11 10 9 9 10 11 11 10 10 10 10 10 11 14 19 22 24 25 26 27 27 28 28 28 29 29 29 29 29 29 29 29 29 29 29 29 29 28 28 28 28 29 29 29 29 29 29 30 30 30
10 9 8 8 8 8 8 8 8 9 10 10 9 9 9 9 9 9 9 7 7 6 6 7 8 8 8 10 11 11 10 10 9 9 8 9 9 9 8 9 10 11 11 10 10 9 10 10 10 11 15 20 23 25 26 27 28 28 29 29 29 29 29 29 29 29 29 29 29 28 28 28 28 28 28 28 28 28 28 29 29 29 29 30 30 30
9 9 9 10 9 9 9 9 10 11 11 10 9 8 9 9 9 8 7 6 7 7 8 8 9 9 9 11 11 11 10 9 9 8 7 8 9 9 7 8 9 10 11 10 10 9 10 10 10 11 15 20 24 26 27 28 28 29 29 29 29 29 29 28 28 28 28 28 28 28 28 28 28 28 28 28 28 28 28 29 29 29 29 30 30 30
9 10 10 10 10 9 9 9 10 10 10 9 9 9 7 7 7 7 7 7 8 8 9 9 10 10 10 10 11 10 10 9 8 7 6 8 10 9 7 8 9 10 11 10 10 10 10 10 10 12 15 21 25 26 28 28 28 28 29 28 28 28 28 28 28 28 28 28 28 28 28 28 28 28 28 29 29 29 29 29 29 29 29 29 30 30
10 10 10 9 9 8 8 8 9 8 8 8 8 8 7 7 7 7 8 8 9 9 9 9 10 10 10 10 10 10 9 8 7 6 5 7 9 9 8 8 9 10 11 10 10 10 11 11 11 11 13 19 23 25 27 28 28 28 28 28 28 27 27 27 27 27 27 27 28 28 28 28 28 29 29 29 29 29 29 29 29 29 29 29 30 30
9 10 9 10 10 11 12 12 12 12 10 9 8 8 8 9 10 10 9 9 9 9 9 9 9 9 9 9 9 9 8 7 7 6 5 6 8 9 8 8 9 10 11 10 9 10 11 11 11 11 11 15 20 24 26 26 27 27 27 27 27 27 27 27 27 27 27 28 28 28 28 28 29 29 29 29 29 29 29 29 29 30 30 30 30 30
13 14 15 17 19 21 23 23 22 20 19 15 12 10 9 9 9 9 9 8 8 8 8 9 9 9 8 8 8 8 7 7 6 6 6 6 7 8 8 7 8 9 11 10 9 10 11 11 12 12 11 13 16 20 23 24 25 26 26 26 26 26 27 27 27 28 28 28 28 28 28 28 29 29 29 29 29 29 29 30 30 30 30 30 29 29
21 23 25 25 25 25 25 24 24 24 24 21 18 15 12 9 8 8 9 8 7 7 8 8 9 9 8 8 8 8 8 7 6 6 6 6 7 8 7 7 8 9 10 10 10 10 11 12 12 12 12 11 12 15 20 22 23 24 25 26 26 27 27 28 28 28 28 28 28 28 28 28 28 28 29 29 29 29 29 29 30 30 30 28 26 24
23 23 23 23 22 22 21 21 21 22 22 22 22 20 15 10 8 8 8 7 7 7 8 8 9 9 8 8 8 8 9 8 7 6 7 6 6 7 7 7 8 9 10 9 9 10 11 11 11 11 11 11 11 12 15 19 21 23 24 25 26 27 27 27 27 27 27 27 27 27 27 28 28 28 28 28 29 29 29 29 29 29 27 23 18 14
19 19 19 19 19 19 19 19 19 20 21 21 21 18 14 9 7 8 8 7 7 7 8 8 8 8 8 8 9 9 9 8 8 7 6 6 6 6 7 7 8 8 8 8 9 9 9 8 8 9 10 11 11 11 12 15 17 18 20 23 24 25 25 26 26 26 26 26 26 27 27 27 27 28 28 28 28 28 29 30 29 26 21 16 13 11
13 14 14 14 15 15 15 15 15 16 18 19 18 16 12 8 7 7 7 7 7 8 8 9 9 8 8 8 8 8 8 7 7 6 6 5 5 6 7 8 8 8 7 7 7 7 7 6 6 7 9 10 11 10 10 11 12 12 14 17 19 20 22 24 24 25 25 25 26 26 26 27 27 27 27 28 28 28 29 30 28 22 14 11 10 10
11 11 11 11 11 11 11 11 11 12 13 14 14 13 10 8 7 6 6 6 7 7 8 8 9 8 8 7 7 7 7 6 6 6 6 5 5 6 8 8 8 8 6 6 6 7 8 7 6 6 8 9 10 10 10 10 10 10 10 12 13 15 19 21 22 23 23 24 24 25 26 26 26 27 27 27 28 28 29 29 27 21 13 11 10 10
10 10 9 9 9 9 9 8 8 9 9 9 9 9 9 8 7 6 6 6 6 7 8 8 9 9 8 8 7 7 7 7 7 8 7 5 5 6 7 7 8 8 7 6 6 7 8 7 7 7 7 9 9 10 10 10 10 10 10 10 11 12 16 18 19 19 19 20 22 23 24 25 26 26 27 27 27 28 28 29 26 21 13 11 11 11
10 9 9 9 8 8 8 8 8 8 8 7 7 7 7 7 8 7 7 6 6 7 7 8 8 9 9 9 9 9 8 9 9 10 9 6 5 5 6 8 8 8 8 7 7 7 7 8 8 8 9 9 9 9 10 10 10 10 10 10 10 11 14 14 14 14 14 16 17 19 21 23 24 24 25 26 26 27 27 28 26 23 17 13 11 11
10 10 9 9 8 8 8 8 8 8 7 7 7 7 7 7 7 7 7 7 7 7 7 7 8 9 9 9 9 10 10 10 11 11 10 7 6 6 7 8 9 9 8 8 7 8 7 9 10 9 9 9 9 8 9 10 10 10 9 9 9 10 11 11 11 11 12 12 13 13 15 16 18 20 21 23 23 24 25 26 26 26 24 18 14 13
9 9 9 8 8 8 8 8 8 8 7 7 7 7 7 7 7 7 7 7 7 7 7 7 8 8 9 9 9 10 11 11 11 12 11 8 7 6 7 8 9 9 9 8 8 7 7 9 11 11 10 10 10 9 8 8 9 9 9 9 9 10 10 10 10 10 11 11 11 11 11 11 12 14 16 18 20 22 24 26 27 28 28 25 22 17
8 9 8 8 8 8 8 8 8 8 8 7 7 7 7 7 7 7 7 7 8 8 9 8 8 9 9 9 10 11 12 12 12 12 12 10 8 7 7 8 8 9 9 9 8 8 8 9 11 12 12 11 10 9 8 8 8 9 9 9 10 10 10 10 10 10 10 11 11 11 11 11 11 11 13 17 20 23 25 26 27 28 28 28 27 24
8 8 8 8 7 8 8 8 8 7 7 7 7 7 8 8 8 8 8 8 8 9 9 10 10 11 11 11 11 11 12 12 12 13 13 11 9 8 8 8 9 10 9 9 9 9 9 10 10 11 11 11 10 9 9 9 9 9 10 10 10 10 10 10 10 10 10 11 11 11 11 11 11 12 13 17 20 21 23 25 25 26 27 27 27 27
8 8 8 7 7 7 7 7 7 7 7 7 8 8 9 9 9 10 9 10 10 10 10 10 10 11 14 15 15 14 14 15 15 16 15 13 11 9 9 9 10 10 10 9 9 9 9 10 10 11 10 10 10 11 11 11 11 11 11 10 10 10 10 10 10 10 10 11 12 13 13 12 12 12 12 13 13 13 14 15 17 19 21 22 23 25
8 8 8 8 7 7 7 7 7 7 7 8 8 9 9 10 11 11 10 10 10 10 11 10 10 11 13 14 15 16 16 16 16 15 15 13 11 10 10 10 10 11 10 10 9 9 10 10 10 10 10 10 11 11 11 10 11 12 12 11 11 10 10 10 10 10 10 11 12 13 13 12 11 11 11 11 10 11 11 12 13 14 15 14 16 19
8 8 8 8 8 7 7 8 8 8 8 9 9 10 10 10 10 10 10 10 10 10 11 11 11 11 11 12 13 14 14 13 12 12 11 10 9 9 10 10 10 10 10 10 9 9 10 10 11 11 11 11 11 11 10 10 11 12 12 11 10 9 10 10 10 10 10 11 11 12 12 11 11 11 11 11 11 11 11 11 11 12 13 12 12 13
8 8 8 8 8 8 8 8 8 8 8 9 9 8 8 8 8 8 9 9 9 9 9 10 10 10 10 11 12 13 13 12 12 12 10 10 11 11 10 10 10 10 10 10 10 10 10 11 11 12 12 11 12 12 13 12 13 14 14 12 11 11 11 11 11 11 11 11 11 11 12 12 12 12 12 12 11 11 11 11 12 12 12 11 10 11
9 9 8 8 8 8 8 8 9 9 9 9 8 8 8 8 8 8 9 9 9 9 8 8 9 10 10 11 11 11 11 11 11 11 11 12 12 11 11 10 10 9 9 10 10 11 11 11 12 12 11 11 11 11 12 12 13 13 13 13 13 13 13 12 11 10 10 11 11 11 13 13 12 12 12 12 11 11 11 11 13 14 14 12 11 11
8 8 8 8 8 8 9 9 9 9 8 8 8 8 8 8 8 8 9 9 9 9 9 9 9 9 10 11 11 11 10 9 10 11 11 11 11 11 11 11 10 10 9 9 10 11 11 12 12 11 11 11 11 12 13 13 13 13 13 13 13 12 9 9 9 9 10 11 11 11 11 11 11 11 11 11 11 10 10 12 14 15 14 13 12 11
8 8 8 8 8 8 8 8 8 8 8 8 8 8 8 8 8 9 9 9 9 10 9 9 9 9 10 11 11 11 10 9 10 11 11 11 11 11 11 11 11 11 10 9 9 10 11 11 11 11 11 11 11 11 12 12 12 12 12 12 12 12 10 10 10 11 11 11 11 11 11 11 11 11 11 11 11 10 10 10 11 11 13 12 11 11
8 8 8 8 8 8 8 8 8 8 8 8 9 9 8 9 9 9 8 9 9 9 9 9 8 8 9 10 10 10 10 10 10 9 9 11 12 13 12 11 10 10 10 10 10 10 10 11 11 11 10 10 11 11 12 12 12 12 13 13 13 13 13 12 12 12 12 12 11 11 11 11 11 11 11 11 11 11 10 11 11 11 12 11 11 11
7 7 8 8 8 8 9 9 9 9 9 9 9 9 8 8 8 8 9 9 9 9 9 9 8 8 9 10 10 9 9 10 10 9 9 9 9 10 10 10 10 9 9 9 10 10 10 11 11 11 11 11 11 12 12 12 12 12 12 12 12 12 12 12 12 12 12 12 12 12 12 12 11 11 11 12 12 12 11 11 11 12 12 12 11 10
7 8 8 8 8 8 9 9 9 9 9 9 9 9 8 8 8 8 9 9 9 9 9 9 9 9 10 10 10 10 10 10 10 10 10 9 9 9 9 9 10 10 10 10 10 11 11 11 11 11 11 11 11 12 12 12 12 12 12 12 12 12 12 11 11 11 11 11 11 11 12 11 11 12 12 12 12 12 11 11 11 11 11 11 10 10
8 8 8 8 8 9 9 9 9 9 9 9 9 9 9 9 9 9 9 9 9 9 9 9 9 9 10 10 10 10 11 11 11 11 10 10 10 9 9 9 9 10 10 11 12 12 12 12 12 12 11 11 11 12 12 12 12 12 12 12 11 11 12 11 11 11 11 11 11 11 10 9 10 11 12 13 12 12 12 12 11 11 10 10 10 10
8 8 8 8 9 9 9 9 9 9 10 10 10 10 9 10 11 11 10 9 9 9 9 9 9 10 10 10 10 11 12 12 11 11 10 10 9 9 9 9 9 9 9 10 11 11 11 11 12 12 11 11 11 12 12 12 11 11 11 11 11 11 11 11 11 10 10 11 11 11 10 10 10 11 11 12 13 13 13 13 12 11 10 9 9 9
8 8 8 8 9 9 9 9 9 9 10 10 10 10 10 10 10 9 9 9 9 8 8 9 9 10 10 11 11 11 11 11 11 10 10 9 9 9 9 9 9 10 10 10 9 8 8 8 8 9 10 11 11 11 11 11 11 11 10 10 10 10 10 11 11 11 11 11 11 12 12 11 11 10 10 12 13 14 14 13 12 11 10 9 9 10
8 8 8 8 9 9 9 9 9 10 10 10 11 10 10 10 10 9 9 9 9 9 9 9 9 10 11 11 11 11 11 11 11 11 11 10 9 9 9 10 10 10 10 9 9 8 7 6 6 7 7 10 11 11 9 10 10 10 10 10 9 9 10 10 11 11 12 11 11 11 12 11 11 10 10 10 11 12 13 13 13 12 11 10 10 11
Wind_Direction
301 305 308 310 309 306 304 306 305 303 302 301 301 300 300 300 299 299 299 298 297 296 295 294 293 294 294 295 295 295 294 294 293 292 291 291 291 291 291 292 293 293 293 292 292 292 291 291 291 291 291 291 291 290 290 290 289 289 288 288 287 287 286 286 285 285 285 284 284 283 283 283 282 282 282 282 281 281 280 280 280 279 279 278 277 276
303 304 306 309 308 305 301 304 303 301 301 301 301 300 300 299 298 297 296 295 294 294 294 294 294 294 294 294 294 293 293 292 291 291 291 292 292 293 294 294 294 294 294 293 292 292 292 292 291 291 291 290 290 289 288 288 287 287 286 286 286 285 285 285 284 284 284 283 283 283 282 282 282 282 281 281 280 279 278 278 277 277 276 276 275 274
305 304 305 307 306 303 300 302 301 299 299 299 299 298 297 296 295 294 293 292 293 293 294 295 295 294 293 291 291 290 291 291 291 292 293 294 295 295 296 296 295 295 294 293 293 292 292 291 291 290 290 289 288 288 287 287 286 286 286 285 285 285 285 285 284 284 284 283 283 282 282 282 281 281 280 279 279 278 277 276 276 275 275 274 274 273
304 304 306 305 301 299 298 300 300 299 296 295 294 294 293 292 291 291 292 293 294 295 295 294 293 291 290 288 288 289 290 292 293 295 296 297 297 297 297 297 296 295 294 293 293 292 291 291 290 290 289 289 288 288 287 287 287 287 286 286 286 286 285 285 284 284 284 283 283 282 282 282 281 281 280 279 279 278 278 277 277 277 277 276 276 275
302 302 303 301 298 296 297 297 297 295 293 291 291 290 290 289 290 291 292 293 294 294 293 291 289 288 287 287 288 291 293 295 297 299 299 299 299 298 298 297 296 295 294 293 292 292 291 290 290 290 289 289 289 288 288 288 287 287 287 287 286 286 286 285 285 285 284 284 283 283 283 282 282 282 281 281 281 281 280 280 280 280 279 279 278 277
299 298 299 298 297 296 296 295 293 292 290 289 288 289 290 291 292 293 293 292 292 291 289 288 287 287 288 289 293 296 298 300 301 301 301 300 299 298 297 296 295 294 293 293 292 291 291 291 290 290 290 289 289 289 288 288 288 288 287 287 287 287 287 287 286 286 286 285 285 284 284 284 283 283 283 283 282 282 282 282 281 281 280 279 279 278
296 295 296 294 293 291 290 290 290 290 290 291 291 291 291 292 292 291 290 289 289 288 288 288 288 290 291 294 297 300 302 302 302 302 300 299 298 297 296 296 295 294 293 292 291 291 291 290 290 290 290 289 289 289 289 289 289 289 289 289 289 289 289 288 288 288 287 287 286 286 285 285 284 284 283 283 283 282 282 282 281 280 279 278 277 277
297 295 292 291 290 289 287 286 288 290 292 295 296 297 295 291 289 288 287 287 288 289 291 292 293 294 296 299 302 303 304 303 301 300 299 298 297 296 295 294 293 293 292 291 291 291 291 290 290 290 290 290 290 290 290 290 290 290 290 290 290 290 290 289 289 288 288 287 287 286 286 285 285 284 284 283 283 282 281 281 280 279 278 277 276 275
293 292 290 287 287 288 289 288 289 291 294 295 296 296 295 293 291 288 288 289 292 295 297 298 298 298 299 302 303 303 302 299 298 296 296 295 295 294 294 293 292 292 291 291 291 291 291 291 291 291 291 291 291 291 291 291 291 291 291 291 291 290 290 289 289 288 288 287 287 286 286 286 285 284 284 283 282 282 281 280 279 278 278 277 276 275
285 285 286 284 283 284 287 291 294 295 292 287 285 286 289 294 296 297 297 297 297 298 299 299 300 301 301 302 302 300 299 296 294 293 292 292 292 292 292 292 292 291 291 292 292 292 293 293 293 293 293 292 292 292 292 291 291 291 291 290 290 290 289 289 288 288 287 287 287 287 286 286 285 284 283 283 282 281 280 279 278 277 276 275 275 274
284 284 284 284 283 281 281 287 291 292 288 284 283 284 287 295 300 303 303 302 301 299 298 298 300 301 302 302 300 298 296 294 292 291 291 291 292 292 292 293 292 292 293 293 294 294 295 294 294 294 293 293 293 292 291 291 291 290 290 290 289 289 289 288 288 288 287 287 287 286 286 285 284 284 283 282 281 279 278 277 276 275 274 273 273 272
286 286 285 285 286 286 285 284 285 288 291 293 295 296 297 298 300 300 300 301 301 301 300 299 299 299 300 300 299 297 294 291 290 290 291 291 292 293 294 294 294 294 295 295 296 296 295 295 294 294 293 292 292 291 291 290 290 290 290 289 289 289 289 288 288 287 287 286 286 285 285 284 284 283 282 281 280 279 277 276 275 273 272 271 271 270
283 283 282 282 284 288 292 295 297 299 301 301 301 301 301 301 300 297 296 298 300 302 303 301 299 296 295 294 294 293 292 290 290 290 291 293 295 296 297 297 296 296 297 296 296 295 295 294 293 293 292 291 291 290 290 290 289 289 289 289 289 289 288 288 287 287 286 286 285 285 284 284 283 282 282 281 280 279 278 277 275 274 273 272 271 270
281 282 281 283 287 293 299 302 303 303 302 301 299 299 299 301 300 299 297 298 300 303 303 300 297 295 293 291 289 289 289 290 291 291 292 293 296 298 299 298 297 297 297 295 294 293 293 293 292 291 290 289 289 289 289 289 289 290 290 290 290 289 289 288 287 287 286 286 285 285 284 284 283 282 281 281 280 279 278 277 276 275 274 273 272 272
282 286 289 293 297 300 303 302 301 299 298 298 297 297 298 299 300 301 301 301 302 302 300 296 293 290 288 288 288 289 290 292 293 294 295 294 296 298 300 298 296 295 295 293 292 291 291 290 289 287 287 287 287 288 289 290 290 291 291 290 290 289 289 288 288 287 287 286 285 285 284 283 283 282 281 280 279 278 277 277 276 275 274 273 273 272
289 294 297 299 300 300 299 299 298 297 297 298 298 299 300 302 303 304 303 301 300 299 296 294 292 290 286 284 287 292 296 297 297 297 297 296 297 299 301 298 296 293 292 290 289 289 289 287 286 285 286 288 289 290 290 291 291 291 291 291 290 290 289 288 288 287 286 286 285 285 284 283 283 282 281 280 279 278 277 276 275 274 274 273 272 271
296 298 298 298 297 296 297 295 294 295 298 299 300 301 302 303 303 302 298 296 295 293 291 291 292 292 292 292 294 298 305 303 301 298 297 296 297 299 300 296 293 291 290 289 288 289 289 288 287 287 287 288 289 290 291 291 291 291 291 290 290 290 289 288 288 287 287 286 286 285 285 284 283 282 281 280 279 278 277 276 275 274 273 272 271 270
297 297 297 294 294 294 297 296 296 297 298 299 300 300 300 299 297 294 291 290 289 288 288 286 286 289 296 299 302 307 312 306 302 298 296 294 295 296 297 292 289 287 288 288 288 288 288 287 286 287 287 289 290 291 291 291 291 291 290 290 290 290 290 289 289 289 288 287 287 286 285 284 283 282 282 281 279 278 277 276 275 274 273 272 271 270
294 293 293 292 292 293 294 294 295 297 298 298 300 299 297 294 291 289 288 286 284 284 284 284 286 289 295 297 301 306 310 304 300 297 294 292 293 294 294 290 287 285 286 287 287 288 288 287 287 288 288 290 290 291 291 291 291 291 291 291 291 291 291 290 290 289 289 288 287 286 285 284 283 282 281 280 279 278 277 276 275 273 272 271 270 270
289 288 288 290 291 291 290 289 290 293 295 297 297 295 293 291 288 286 284 282 281 280 282 286 291 294 297 297 299 302 305 302 297 293 289 288 289 290 292 290 288 287 286 287 289 291 290 289 288 288 289 289 290 291 291 292 292 292 292 292 292 292 291 290 290 289 289 288 287 286 285 285 284 283 282 281 280 279 278 277 275 274 273 271 270 269
286 285 284 287 288 289 288 289 290 292 293 295 294 291 288 286 284 282 281 282 284 288 293 293 295 296 299 297 297 297 300 297 293 288 286 285 286 288 292 291 290 289 288 289 290 290 289 287 286 287 288 290 291 292 293 293 293 293 293 292 292 291 291 290 290 289 289 288 288 287 287 286 286 285 285 284 282 281 280 278 277 275 274 272 271 270
286 286 287 287 286 287 288 290 291 291 291 291 288 284 282 282 282 283 288 295 298 300 299 296 295 296 295 292 290 291 292 289 286 284 286 286 286 288 292 292 290 289 288 289 290 290 288 288 288 289 290 292 293 294 294 293 293 292 292 292 291 291 290 290 290 289 289 289 288 288 288 288 287 287 286 285 284 283 282 280 279 277 276 274 272 271
287 288 290 289 287 286 287 288 288 288 287 283 279 277 277 280 285 292 301 305 303 300 297 295 293 291 288 285 285 285 285 282 281 281 283 284 286 289 294 293 290 288 287 290 292 293 292 292 292 292 293 293 293 293 293 293 292 292 292 291 291 291 290 290 289 289 289 289 288 288 288 287 287 286 286 285 284 283 283 281 280 279 278 276 275 273
286 287 288 287 285 284 283 283 283 281 279 276 275 276 279 285 292 297 301 301 299 296 294 292 290 287 284 283 283 283 283 283 283 283 282 283 286 289 294 294 291 288 287 290 294 296 296 294 293 292 292 292 292 292 292 292 292 291 291 291 290 290 290 289 289 289 289 289 289 288 287 287 286 285 284 284 283 282 281 281 280 279 278 277 276 275
285 284 284 283 281 280 280 280 281 282 283 284 287 290 294 298 300 300 299 297 294 292 290 289 288 287 286 287 287 286 287 289 289 287 284 283 285 287 291 292 291 290 290 293 296 298 297 294 293 291 291 291 291 292 291 291 291 291 290 290 290 290 290 290 290 290 290 289 289 288 286 285 285 284 283 282 281 280 279 278 278 277 276 275 275 274
288 286 285 284 284 285 286 287 289 292 295 297 299 302 304 304 303 301 297 293 291 291 291 289 289 289 290 291 290 289 290 290 288 285 283 284 285 287 289 291 290 290 292 294 297 297 296 294 293 293 292 291 290 290 290 290 290 291 291 291 292 292 292 292 291 291 290 289 288 287 285 284 283 283 282 281 280 280 279 278 277 276 275 275 274 273
290 289 287 288 289 291 293 295 297 299 301 301 302 302 302 302 299 295 290 291 292 294 293 291 291 291 292 290 288 288 291 291 289 286 284 283 284 286 288 291 292 293 294 295 296 296 295 294 293 293 291 289 288 289 289 291 292 293 293 293 293 293 293 292 291 290 289 288 287 286 285 284 283 282 282 281 281 280 280 279 279 278 277 277 275 273
290 289 289 291 294 297 299 301 302 302 302 301 301 300 300 298 294 291 289 293 295 294 290 289 290 290 291 289 289 290 291 290 288 287 285 283 282 284 289 294 296 296 297 296 295 293 292 290 290 289 289 288 288 289 291 293 294 295 295 294 293 292 292 291 290 289 288 287 287 286 285 284 283 283 282 282 282 282 281 281 281 281 281 280 278 275
289 290 293 296 300 302 304 304 303 302 301 299 299 298 297 292 287 285 287 292 293 290 286 285 285 286 288 289 290 290 288 285 285 287 290 287 284 285 292 296 298 299 300 298 295 292 287 285 285 287 289 291 292 294 295 296 296 295 294 293 292 291 290 290 289 289 288 288 287 286 286 285 285 284 284 283 283 283 283 283 283 283 282 280 277 274
295 298 301 304 305 306 305 303 301 299 297 296 296 295 293 287 282 280 284 287 286 284 283 284 284 285 288 290 291 289 284 282 286 294 301 295 290 289 295 296 297 299 302 302 300 296 289 285 284 287 291 295 296 296 296 296 295 293 292 291 291 290 290 290 290 290 289 289 289 288 288 287 287 286 285 285 284 284 284 284 284 283 282 278 274 269
306 308 308 307 306 304 301 298 296 295 294 294 294 294 291 285 280 277 278 279 279 279 280 282 284 285 287 289 289 287 284 286 295 304 308 297 290 289 295 295 295 296 299 300 301 300 299 296 292 291 294 295 295 295 294 293 292 292 291 291 290 290 290 290 291 291 291 291 291 291 290 289 289 288 287 286 285 284 284 283 283 283 280 277 272 269
309 308 306 304 302 300 297 295 293 292 292 293 292 291 288 285 281 278 276 275 275 275 277 280 282 283 283 282 281 281 282 288 296 301 301 293 287 287 291 291 292 293 294 291 290 292 297 300 301 300 298 295 293 292 292 292 292 291 291 291 290 289 290 291 292 293 293 293 293 292 292 291 289 288 287 286 285 284 283 283 283 282 279 275 271 269
306 304 302 300 299 297 295 293 292 292 291 291 291 290 289 286 284 281 278 275 274 273 274 277 280 281 281 279 277 276 278 283 290 294 296 291 288 287 290 291 291 292 292 287 283 282 284 291 297 300 298 294 292 292 292 292 291 290 289 289 289 289 291 293 294 294 294 294 293 292 291 290 289 288 286 285 284 284 283 283 282 280 278 274 271 269
302 300 299 298 297 295 294 293 292 292 292 293 293 293 292 289 287 284 281 278 274 272 270 273 275 278 280 280 278 277 278 280 286 291 295 292 288 287 289 289 290 291 292 288 285 282 280 285 290 295 297 295 293 291 291 292 291 289 287 287 288 290 292 294 294 293 293 292 291 291 290 289 288 286 286 284 283 283 282 282 282 281 279 277 274 272
299 299 298 297 296 295 295 294 294 294 295 295 296 296 295 292 290 287 283 280 276 273 269 268 268 270 273 275 277 278 279 281 286 290 292 288 285 284 286 286 287 289 290 288 287 286 284 285 288 291 294 296 294 292 289 290 289 289 288 287 288 289 291 292 292 292 292 291 289 288 287 287 285 284 283 283 282 282 282 282 282 282 281 280 278 276
298 298 297 297 297 297 297 297 298 298 298 298 298 297 296 293 291 288 285 282 279 276 274 270 267 265 264 266 269 272 276 280 284 286 285 282 280 280 282 282 285 286 287 286 285 284 284 286 287 289 291 292 293 294 292 292 291 291 290 289 289 288 288 288 289 289 290 289 288 287 286 285 283 282 281 282 282 283 283 283 283 283 282 281 280 278
297 297 297 298 298 299 299 299 300 300 300 299 299 298 296 293 291 289 287 283 280 277 275 273 269 266 262 261 262 265 270 275 278 280 279 278 276 276 276 279 281 282 282 282 283 283 284 285 286 287 287 287 289 293 297 299 297 295 291 291 290 289 288 288 287 286 286 285 285 284 284 284 284 283 282 283 283 284 284 283 283 282 282 282 281 279
298 298 299 300 300 299 299 300 300 300 301 300 299 298 296 293 291 290 287 284 280 277 275 273 271 269 266 265 264 264 267 270 273 274 274 274 272 272 272 276 277 277 275 276 278 280 282 284 286 287 286 284 285 288 293 297 297 295 293 291 289 288 288 288 287 285 284 284 284 284 285 284 284 283 283 282 282 282 282 281 281 281 282 282 281 280
299 299 300 300 300 300 300 300 300 301 301 299 298 296 294 292 290 288 287 285 282 280 278 277 276 274 272 270 269 268 269 270 271 272 272 270 268 267 269 272 274 274 273 272 273 274 276 278 280 282 285 287 287 288 289 290 291 292 293 293 290 287 285 287 287 287 286 285 286 286 285 283 282 281 280 280 281 281 282 282 282 283 284 284 283 282
300 300 299 301 301 301 300 300 300 300 300 298 296 294 292 291 290 289 287 286 285 284 283 282 281 279 278 277 276 275 275 275 274 273 271 267 264 263 264 267 270 272 273 271 270 269 270 272 274 276 279 282 286 288 289 287 288 290 293 294 292 290 290 291 290 289 286 284 283 283 283 282 281 280 280 281 281 281 282 283 284 284 284 284 284 283
301 301 300 301 302 302 300 300 300 299 299 297 295 293 292 291 291 291 291 290 288 288 288 287 286 284 282 280 280 279 279 278 276 274 271 266 262 260 260 262 265 267 270 269 269 268 268 270 272 274 276 278 280 283 284 284 287 289 291 291 290 291 293 292 290 287 285 282 280 280 282 284 284 284 283 282 280 279 278 279 281 282 282 278 276 276
301 301 302 303 304 303 302 301 300 298 297 295 293 291 290 291 292 293 293 293 293 292 293 292 291 290 289 286 284 282 280 278 276 275 273 268 265 261 260 260 261 264 266 268 268 268 267 268 270 273 275 276 279 281 282 284 286 288 289 289 291 292 292 288 285 283 284 283 283 283 284 285 285 285 284 283 281 279 277 276 276 277 277 275 272 270
301 301 303 303 303 302 301 301 300 298 297 294 291 290 290 291 291 291 291 292 293 293 294 293 292 291 290 290 290 289 287 283 280 279 278 274 270 267 264 263 263 263 264 267 269 269 268 268 268 270 272 275 277 279 282 285 287 288 287 287 290 293 292 289 288 286 285 284 284 284 283 284 284 284 284 284 283 282 280 277 275 273 271 271 270 268
299 299 301 302 302 301 302 301 300 298 296 294 292 292 292 291 291 290 290 290 290 291 292 291 290 289 286 287 289 291 293 291 288 285 282 279 275 272 270 268 266 265 263 265 268 271 273 271 270 271 273 275 276 277 279 282 284 285 285 285 284 283 281 285 289 289 286 284 282 281 281 283 285 287 287 285 284 282 281 278 275 273 270 269 268 267
297 298 299 301 302 302 302 300 299 298 296 294 292 292 292 293 293 292 291 290 290 289 289 290 290 288 286 286 289 291 293 294 294 292 288 284 281 280 278 276 273 271 268 265 265 267 271 273 275 275 276 275 274 274 276 279 282 283 283 282 281 279 276 279 282 284 284 284 283 283 284 287 289 290 289 287 286 284 283 282 281 279 277 274 271 269
297 298 300 302 302 301 300 299 299 297 295 293 292 293 294 296 295 293 291 290 289 289 289 289 288 286 286 289 291 292 293 294 294 295 294 292 290 288 285 281 279 276 273 269 266 264 264 268 273 277 279 277 275 273 273 277 280 282 282 282 282 280 279 279 279 280 282 283 284 286 288 290 291 290 289 289 289 288 285 283 281 280 279 278 275 272
300 301 302 301 300 299 299 299 298 297 296 296 296 296 297 298 296 294 292 290 289 289 290 289 287 284 284 287 289 291 293 293 294 295 295 295 294 293 290 286 282 279 276 273 270 268 265 265 267 270 275 277 277 277 276 276 278 279 281 283 283 282 281 280 280 280 282 283 285 288 292 294 293 291 289 290 289 289 287 285 282 280 279 279 278 275
303 302 301 301 300 299 298 298 298 298 298 298 298 298 299 299 298 297 294 293 291 291 290 289 287 285 284 285 287 289 290 291 293 294 295 295 295 294 292 290 287 284 280 277 275 273 270 266 264 263 265 269 273 276 278 278 277 278 279 281 282 282 281 281 282 283 284 284 286 289 293 294 293 292 292 292 291 289 288 288 286 285 282 280 278 277
302 301 300 300 299 298 298 299 299 299 298 299 299 299 299 299 298 297 295 293 292 290 288 288 287 287 287 287 288 289 290 290 291 292 293 295 296 296 295 293 291 289 286 283 279 276 273 268 262 258 255 258 264 270 275 276 276 277 278 280 281 282 283 285 287 289 290 290 290 291 291 289 289 289 290 290 289 290 291 291 291 289 286 283 280 279
301 299 299 299 298 297 298 298 299 299 299 299 299 299 298 298 297 296 293 292 290 288 286 287 287 287 288 288 289 290 291 291 292 292 293 295 297 297 297 295 294 293 291 289 287 284 281 276 267 258 253 254 258 265 272 276 278 280 281 282 284 287 290 291 292 293 295 295 294 293 291 289 287 285 284 284 286 289 292 293 293 293 292 290 288 286
301 300 299 298 297 296 297 297 297 297 297 297 297 297 296 296 296 295 294 292 290 289 288 287 286 286 287 288 289 290 291 292 292 293 294 296 297 297 296 295 295 295 295 294 294 294 294 292 287 278 266 263 263 266 273 279 284 287 287 287 289 290 291 291 293 294 295 295 294 293 291 288 286 283 281 282 286 290 293 294 295 296 297 297 295 292